EHI
6 6 5 3 2 1 1 0 0 0 0 0 0 0 0 0 0 1 1 1 0 0 0 0 0 0 0 0 0 0 0 0 0 0 0 0 0 0
3 4 3 5 7 7 4 1 0 0 0 0 0 0 0 0 0 0 0 0 0 0 0 0 0 0 0 0 0 0 0 0 0 0 0 0 0 0
1 1 2 5 11 16 13 6 1 0 0 0 0 0 0 0 0 0 0 0 0 0 0 0 0 0 0 0 0 0 0 0 0 0 0 0 0 0
0 0 0 2 7 14 17 10 4 1 0 0 0 0 0 0 0 0 0 0 0 0 0 0 0 0 0 0 0 0 0 0 0 0 0 0 0 0
0 0 0 0 1 5 9 10 7 3 1 2 1 0 0 0 0 0 0 0 0 0 0 0 0 0 0 0 0 0 0 0 0 0 0 0 0 0
0 0 0 0 0 0 2 6 8 7 6 5 3 1 0 0 0 0 0 0 0 0 0 0 0 0 0 0 0 0 0 0 0 0 0 0 0 0
0 0 0 0 0 0 0 2 4 8 10 9 6 2 0 0 0 0 0 0 0 0 0 0 0 0 0 0 0 0 0 0 0 0 0 0 0 0
0 0 0 0 0 0 0 0 1 4 8 10 6 2 0 0 0 0 0 0 0 0 0 0 0 0 0 0 0 0 0 0 0 0 0 0 0 0
0 0 0 0 0 0 0 0 0 0 2 4 4 2 0 0 0 0 0 0 0 0 0 0 0 0 0 0 0 0 0 0 0 0 0 0 0 0
0 0 0 0 0 0 0 0 0 0 0 0 1 1 0 0 0 0 0 0 0 0 0 0 0 0 0 0 0 0 0 0 0 0 0 0 0 0
0 0 0 0 0 0 0 0 0 0 0 0 0 0 0 0 0 0 0 0 0 0 0 0 0 0 0 0 0 0 0 0 0 0 0 0 0 0
0 0 0 0 0 0 0 0 0 0 0 0 0 0 0 0 0 0 0 0 0 0 0 0 0 0 0 0 0 0 0 0 0 0 0 0 0 0
0 0 0 0 0 0 0 0 0 0 0 0 0 0 0 0 0 0 0 0 0 0 0 0 0 0 0 0 0 0 0 0 0 0 0 0 0 0
0 0 0 0 0 0 0 0 0 0 0 0 0 0 0 0 0 0 0 0 0 0 0 0 0 0 0 0 0 0 0 0 0 0 0 0 0 0
0 0 0 0 0 0 0 0 0 0 0 0 0 0 0 0 0 0 0 0 0 0 0 0 0 0 0 0 0 0 0 0 0 0 0 0 0 0
0 0 0 0 0 0 0 0 0 0 0 0 0 0 0 0 0 0 0 0 0 0 0 0 0 0 0 0 0 0 0 0 0 0 0 0 0 0
0 0 0 0 0 0 0 0 0 0 0 0 0 0 0 0 0 0 0 0 0 0 0 0 0 0 0 0 0 0 0 0 0 0 0 0 0 0
0 0 0 0 0 0 0 0 0 0 0 0 0 0 0 0 0 0 0 0 0 0 0 0 0 0 0 0 0 0 0 0 0 0 0 0 0 0
0 0 0 0 0 0 0 0 0 0 0 0 0 0 0 0 0 0 0 0 0 0 0 0 0 0 0 0 0 0 0 0 0 0 0 0 0 0
0 0 0 0 0 0 0 0 0 0 0 0 0 0 0 0 0 0 0 0 0 0 0 0 0 0 0 0 0 0 0 0 0 0 0 0 0 0
0 0 0 0 0 0 0 0 0 0 0 0 0 0 0 0 0 0 0 0 0 0 0 0 0 0 0 0 0 0 0 0 0 0 0 0 0 0
0 0 0 0 0 0 0 0 0 0 0 0 0 0 0 0 0 0 0 0 0 0 0 0 0 0 0 0 0 0 0 0 0 0 0 0 0 0
0 0 0 0 0 0 0 0 0 0 0 0 0 0 0 0 0 0 0 0 0 0 0 0 0 0 0 0 0 0 0 0 0 0 0 0 0 0
Wind_Speed
8 10 10 9 8 8 8 7 7 6 6 6 5 5 3 3 2 1 3 7 4 1 3 5 7 7 8 10 11 12 13 13 13 13 12 13 13 14
5 6 8 9 8 8 8 8 7 7 4 5 5 5 3 3 4 4 6 6 7 5 4 4 6 6 6 6 7 9 9 9 10 9 10 9 10 10
6 5 6 7 7 8 8 9 8 7 7 5 5 4 4 3 6 5 4 5 6 8 8 9 9 10 9 9 8 9 9 9 9 8 9 9 9 8
9 7 6 4 7 7 7 10 9 8 8 7 6 6 6 5 6 6 5 5 6 10 11 12 13 13 12 11 11 11 10 10 10 10 10 10 10 10
11 10 9 7 7 5 7 9 8 9 9 7 7 5 5 6 8 7 7 6 6 8 12 13 14 14 14 13 12 12 13 13 13 13 14 14 15 15
12 12 12 11 9 6 4 7 8 9 9 8 7 7 6 8 8 7 5 4 5 5 8 9 13 15 14 13 13 13 14 14 14 15 16 16 17 17
13 13 13 14 14 10 5 3 4 6 7 8 8 7 7 8 8 7 7 6 5 3 5 6 7 8 9 11 12 14 14 15 15 16 17 17 17 17
13 13 13 15 17 16 13 9 5 6 7 7 8 9 9 9 9 8 8 8 5 2 4 4 4 7 7 9 11 13 14 16 16 16 17 17 17 17
13 11 10 12 16 14 14 13 10 10 11 10 9 9 8 9 11 12 11 9 6 7 5 5 5 8 9 11 13 13 14 15 16 16 16 16 16 16
12 12 11 9 13 13 13 13 11 10 10 11 12 11 8 8 12 12 11 9 9 5 3 5 5 8 10 10 12 12 13 14 16 16 17 16 16 15
12 12 12 11 11 12 11 11 11 10 11 14 14 9 6 6 11 10 12 11 7 3 1 5 8 9 9 9 10 12 12 13 14 15 16 16 16 14
10 10 9 8 11 13 11 10 10 9 9 10 12 11 9 10 15 15 14 13 10 6 3 5 10 8 7 7 8 9 10 11 11 12 12 12 10 7
10 10 10 13 10 11 9 8 7 6 8 10 10 11 10 10 13 12 12 13 12 7 9 7 8 6 6 8 7 8 9 9 9 7 6 3 4 2
7 6 7 14 11 10 9 6 4 5 7 8 9 9 9 10 10 9 8 6 5 8 12 8 8 6 9 9 7 7 8 8 8 8 8 6 3 7
3 5 8 9 8 10 11 7 7 8 8 8 9 9 8 9 10 10 11 11 11 10 8 7 8 8 7 7 8 8 8 8 8 8 9 8 7 7
7 6 8 7 7 6 8 10 9 8 8 8 8 7 8 10 11 11 11 11 10 8 7 7 9 10 8 9 10 10 9 9 10 9 9 8 8 7
8 8 8 8 9 10 10 9 8 7 8 8 8 8 9 10 11 11 12 12 11 12 13 12 12 11 10 11 11 10 10 10 10 10 9 9 8 7
5 9 8 9 10 10 10 9 8 7 7 7 7 9 11 12 11 11 12 12 12 13 13 13 12 11 11 9 7 11 10 10 10 10 9 8 9 8
8 9 9 9 9 9 8 7 7 6 5 6 8 10 12 13 13 13 12 12 12 13 13 13 13 12 12 11 8 5 8 9 10 11 9 8 7 8
9 9 9 9 9 8 7 6 5 5 5 6 7 10 12 13 14 13 12 13 13 13 14 13 13 11 10 9 10 9 7 9 9 10 10 8 5 6
8 8 8 8 8 7 6 5 5 5 5 6 8 11 12 13 13 13 11 13 13 13 14 13 10 8 6 6 10 11 10 5 2 5 9 9 8 8
7 8 8 8 7 6 6 6 5 5 6 7 8 10 11 11 13 13 12 12 11 12 13 11 11 9 7 8 9 11 11 11 5 2 3 3 5 6
6 7 7 7 7 6 6 6 7 6 6 7 9 10 11 11 10 10 12 12 11 11 12 12 11 10 9 8 8 9 13 13 11 10 9 8 5 3
Wind_Direction
245 243 245 247 236 231 227 229 240 230 193 171 183 149 163 115 97 89 72 65 41 50 199 196 197 203 209 209 208 206 204 203 204 205 209 212 213 212
242 252 249 254 247 232 225 223 231 250 236 164 176 157 135 146 118 99 90 97 67 63 92 130 144 151 153 161 170 176 178 177 180 186 196 200 207 211
231 237 249 264 265 249 231 222 219 226 229 198 180 159 175 178 139 116 99 87 79 67 79 89 97 102 105 111 120 130 139 147 156 164 170 177 183 181
220 222 231 247 262 267 255 236 222 216 224 216 193 181 182 168 137 116 100 85 82 73 79 83 85 88 90 93 98 104 109 114 118 121 123 123 123 119
216 216 218 213 233 245 264 254 235 216 218 218 202 180 178 151 134 117 104 94 89 89 85 84 85 85 85 86 89 92 94 95 96 95 95 95 95 95
218 214 212 207 211 213 242 264 254 231 213 214 203 189 182 163 155 143 131 114 96 86 81 88 92 88 86 89 93 94 93 93 92 91 90 88 88 89
221 218 214 208 202 200 200 235 278 257 225 210 205 199 188 172 171 160 141 127 94 107 117 122 123 116 107 102 99 98 97 96 95 94 93 91 90 90
224 221 218 204 201 197 197 202 232 272 266 233 215 211 198 184 169 157 150 153 134 140 122 114 118 112 107 95 97 102 102 102 100 99 97 96 95 94
220 218 221 205 193 196 196 199 215 241 263 273 259 239 213 188 171 169 174 170 137 148 133 109 105 99 94 93 101 105 106 106 105 103 100 99 97 94
214 209 216 204 193 192 190 193 201 214 231 248 258 260 251 199 180 175 157 120 110 121 131 117 114 106 103 105 102 102 105 106 108 108 107 104 100 95
211 205 203 199 179 182 196 198 201 209 218 236 249 266 291 202 171 156 146 142 131 133 145 130 130 115 107 111 108 101 102 108 112 116 118 119 121 116
206 204 202 206 167 179 204 205 210 212 213 218 226 229 224 181 166 170 166 160 144 145 185 145 146 134 118 122 134 139 121 108 113 122 133 145 165 142
198 199 190 168 170 188 218 226 222 223 220 218 219 216 207 189 181 179 177 171 161 151 164 157 159 147 129 138 146 153 149 150 145 142 151 138 15 0
208 202 148 152 172 191 214 224 212 225 232 222 216 208 195 184 175 168 154 139 128 143 153 152 150 152 139 139 143 155 159 165 165 166 162 153 98 60
232 70 102 142 173 202 218 212 211 224 228 222 214 204 191 169 150 136 119 103 99 116 131 132 132 138 140 143 147 157 164 173 177 175 169 175 169 163
230 185 167 179 224 245 198 198 217 224 225 222 212 190 164 151 147 143 137 131 126 131 148 153 148 152 152 149 151 159 166 171 178 179 177 178 180 181
215 215 213 204 208 213 215 212 212 212 217 222 205 177 159 151 149 148 147 148 147 152 161 169 166 174 164 159 162 168 173 174 175 170 182 181 182 184
227 224 219 220 220 214 211 208 206 210 212 210 192 173 160 154 151 153 155 156 153 156 160 162 163 165 165 164 170 171 173 172 167 168 194 193 186 185
224 230 223 222 222 217 214 210 207 200 199 195 184 169 158 154 154 156 159 159 158 158 159 160 165 167 169 163 163 205 178 168 168 174 197 207 201 183
224 228 224 221 219 218 213 203 201 195 189 185 178 166 158 155 156 160 163 161 159 159 160 166 173 178 182 166 158 170 193 178 178 183 188 204 175 97
214 224 225 221 216 212 208 198 196 192 188 180 176 165 158 156 158 162 161 159 161 163 165 169 168 173 167 149 155 162 170 162 112 191 192 194 191 189
209 219 222 222 214 208 200 190 188 186 184 182 173 161 155 155 157 159 159 163 167 167 168 158 157 172 174 175 169 159 164 166 153 25 300 262 225 209
213 221 223 217 211 205 198 192 185 183 182 176 163 155 151 152 156 159 162 168 171 171 164 158 166 178 182 185 182 167 164 173 185 194 214 215 208 169